STARLINK-34589, 64747

Orbit data source: Space-Track

STARLINK-34589, 64747 is a payload satellite owned by SpaceX/Seattle (US) in LEO that was launched on Wed, 02 Jul 2025 UTC via an FALCON 9 launch vehicle from the Air Force Eastern Test Range (AFETR). Payload-class satellites include a variety of spacecraft equipped with specific instruments for various scientific and technological missions. These include communications satellites like Starlink; space stations such as the ISS; scientific satellites like the Hubble; Earth observation satellites from companies like Planet Labs, Umbra, and HawkEye 360; GPS; miniature CubeSats for education and research; and military/defense satellites.

Loading next visibility...
Identifier
64747, 2025-144Z
Orbit
LEO
Last TLE update
12 hours ago
Origin
Manufacturer
SpaceX/Seattle
Mission
Operational spacecraft
Bus & Motor
STARLINK V2MO, Unknown motor
Mass
575 kg wet, ~530 kg dry
Launch date (UTC)
2025-07-02 (1 week ago)
Launch vehicle
FALCON 9
Launch site
Air Force Eastern Test Range (AFETR)
Object type
Payload
Rocket body
Debris
Shape & HBR
Unknown
Radar Cross Section
RCS unknown

Expand to show TLE details & history

TLE from 12 hours ago
0 STARLINK-34589
1 64747U 25144Z   25191.66668981 -.01278680  00000-0 -50683-2 0  9990
2 64747  53.1535 231.6801 0000847  82.9395  31.6710 15.88516912  2576
Epoch: 2025-07-10T16:00Z
TLE epoch observation values (Epoch: 2025-07-10T16:00:01.999Z)
Latitude
46.82684°
Longitude
-169.74023°
Altitude
311.034 km
Speed
7.728 km/s
True Right ascension
23h 56m 23s
True Declination
46° 38' 37"
Sunlit
Object was in daylight at epoch
Visualization orbit readout
Latitude
-18.03293°
Longitude
-105.74739°
Altitude
315.753 km
Speed
7.719 km/s
Apparent Right ascension
04h 26m 11s
Apparent Declination
-28° 36' 38"
Sunlit
Object is in daylight
Visualization observer readout
Local Sidereal Time
16:44:10
Azimuth
19.499° NNE
Elevation
-78.104°
Doppler factor
1
Orbital elements
Apogee altitude
307.27 km
Perigee altitude
306.138 km
Semi-major axis
6,684.841 km
Eccentricity
0.00008
Inclination
53.1535°
RAAN
231.6801°
Arg. of periapsis
82.9395°
True anomaly
Unknown
Mean anomaly
31.671°
Eccentric anomaly
Unknown
Mean motion
3.97106 °/min
Orbital period
90.66 mins
BSTAR
-0.0050683
Loading maneuver chart data...
Loading SW <> Apogee altitude chart data...
Loading historical data...
Loading historical data...
Loading historical data...
Loading historical data...
Loading historical data...
Loading historical data...
Loading historical data...

STARLINK-34589 Visibility forecast

Observer location: undefined°, undefined°

Span
Click to sort rows by Start time (UTC) header in descending order
Start Az.
Max El. time (UTC)
Max El. Az.
Max El.
End time (UTC)
End Az.
4 mins2025-07-11 05:18:16.722Z212.114° SW2025-07-11 05:20:16.722Z94.192° ESE37.115°2025-07-11 05:22:16.722Z57.783° ENE
|